Погода в Тетюши

Погода в Тетюши : погода сейчас, прогноз погоды и архив. Всё, что Вы хотите узнать о погоде в Тетюши!

Поиск расширенной информации на нашем сайте:

Другие новости

Новости СМИ2

Главная страница сайта

Новости сайта

03.07.2017

Напоминаем, что на нашем специализированном сайте Метеоцентр.Азия вы можете получить высокодетализированные автоматические прогнозы погоды по пунктам России, СНГ и мира в авиационном формате (включающие направление и скорость ветра, видимость, явления погоды, количество и форму облачности, нижнюю и верхнюю границу облачности).


Погода в Тетюши - сегодня

Время (UTC), дата Ветер
(°,м/с) 
Видим.   Явления Облачность Т
(°С)
Тd
(°С)
f(%) Тe
(°С)
Pmin
(гПа)
dP
(гПа)
Po
(мм)
O2
(г/м3)
Тmin Tmax R s Состояние
почвы
06 17.02.18 060 (СВ) 20000 м    10/0 средняя 
[As op]
-12.1 -15.7 75 -12  1040.2  0.1  764  324           
09 17.02.18 тихо ()   20000 м    4/0 средняя 
[Ac trans]
-7.7 -13 66 -8  1038.9  -0.9  764  318           
12 17.02.18 130 (ЮВ) 20000 м    8/0 средняя 
[Ac trans]
-7.8 -12.5 69 -8  1037.6  -1.2  763  318           
18 17.02.18 150 (ЮВ) 4{10}  20000 м    6/0 средняя 
[Ac trans]
-10.2 -14.3 72 -14  1036.2  -0.8  761  320           
21 17.02.18 140 (ЮВ) 20000 м    6/0 средняя 
[Ac trans]
-10.3 -12.6 83 -13  1035.6  -0.6  761  320           
00 18.02.18 140 (ЮВ) 20000 м    10/0 средняя 
[As op]
-10.9 -12.7 87 -15  1034.8  -0.8  760  320           
06 18.02.18 130 (ЮВ) 20000 м    8/0 средняя 
[Ac trans]
-11.3 -13.3 85 -16  1033.4  -0.4  759  320  -13.5         
09 18.02.18 110 (В) 20000 м    6/0 средняя 
[Ac trans]
-8.8 -13 72 -13  1032.4  -0.8  759  317           
12 18.02.18 100 (В) 20000 м    6/0 средняя 
[Ac trans]
-6.9 -12.5 64 -10  1030.7  -1.5  758  314           
18 18.02.18 110 (В) 20000 м    10/0 средняя 
[As op]
-8 -10.1 85 -12  1026.8  -1.6  755  314           
21 18.02.18 120 (ЮВ) 2000 м  снег  10/10 300 м 
[Frnb|Ns]
-7.5 -9.2 88 -12  1025.1  -1.6  754  313           
00 19.02.18 130 (ЮВ) 4000 м  слаб. снег  10/10 300 м 
[Frnb|Ns]
-7.4 -9.1 88 -12  1023.5  -1.6  752  313           
06 19.02.18 150 (ЮВ) 20000 м  слаб. снег  10/10 300 м 
[Frnb|Ns]
-7.8 -9.7 86 -12  1022  -0.2  751  313           
09 19.02.18 150 (ЮВ) 20000 м  {снег}  10/0 средняя 
[As op]
-6.8 -9.2 83 -10  1022.2  0.3  751  311           
12 19.02.18 150 (ЮВ) 20000 м    10/6 600 м средняя 
[Sc|As op]
-6.3 -8.7 83 -9  1021.4  -0.8  751  311           
18 19.02.18 140 (ЮВ) 20000 м    10/6 600 м средняя 
[Sc|As op]
-8.7 -10.1 90 -12  1020.6  -0.7  750  313           
21 19.02.18 160 (Ю) 20000 м    6/0 средняя 
[Ac trans]
-12.4 -14 88 -14  1019.5  -1.3  749  317           
00 20.02.18 090 (В) 20000 м    8/0 средняя 
[Ac trans]
-11.2 -12.7 89 -11  1018.7  -0.7  749  316           
06 20.02.18 120 (ЮВ) 20000 м  слаб. снег  10/0 средняя 
[As op]
-10.2 -11.7 89 -12  1016.9  -0.3  747  314  -13.2         
09 20.02.18 180 (Ю) 20000 м  {снег}  6/0 средняя, верхняя 
[Ac trans|Ci fib]
-6.4 -8.4 86 -9  1015.9  -0.6  747  309           
12 20.02.18 210 (ЮЗ) 20000 м    10/0 средняя 
[As op]
-5.8 -7.7 86 -7  1015.7  0.1  747  308           
18 20.02.18 190 (Ю) 20000 м    6/0 средняя 
[Ac trans]
-8.2 -9.5 90 -11  1015.4  0.1  746  311           
21 20.02.18 200 (Ю) 20000 м    6/0 средняя 
[As op]
-10.1 -11.5 89 -12  1015.4  -0.2  746  313           
00 21.02.18 230 (ЮЗ) 20000 м    6/0 средняя 
[Ac trans]
-9.8 -11.2 89 -13  1015.9  0.4  747  313           
06 21.02.18 260 (З) 20000 м  {снег}  10/0 средняя 
[As op]
-10.3 -11.8 89 -12  1016.3  0.5  747  314           
Время (UTC), дата Ветер
(°,м/с) 
Видим.   Явления Облачность Т
(°С)
Тd
(°С)
f(%) Тe
(°С)
Pmin
(гПа)
dP
(гПа)
Po
(мм)
O2
(г/м3)
Тmin Tmax R s Состояние
почвы

Для получения пояснительной информации подведите курсор к названию столбца.

ПОГОДА в Тетюши - архив

Всё, что Вы хотите узнать о погоде в Тетюши - удобно и подробно!

Выберите нужную дату (начиная с 1 января 2015* года) и нажмите кнопку "Найти".
Будут отображены архивные сводки погоды по пункту Тетюши, начиная с указанной даты.


Отображать данные в формате CSV (для использования в таблицах Excel)


Внимание! Наш архив погоды предназначен исключительно для личного некоммерческого использования в познавательных целях. Если Вам необходимы официальные справки о состоянии погоды (для производственных, юридических, коммерческих и т.п. целей), обращайтесь в органы Росгидромета.

*Примечание: данная дата относится к архиву по метеостанциям СССР (Россия, СНГ, Балтия).
Архив по метеостанциям Зарубежной Европы и Азии (кроме Китая) хранится 10 дней, по другим регионам земного шара (Китай, Африка, Америка, Австралия, Океания) - 1 день.

Тетюши - район местоположения метеостанции


Название, широта, долгота, высота метеостанции:
Тетюши 54.9°ш. 48.8°д. 156 м над ур. моря [Российская Федерация]

Дополнительная информация

В oтличие oт бoльшинства пoгoдных сайтoв мы публикуем пoдрoбную метеoинфoрмацию в детальнoм прoфессиoнальнoм фoрмате.

Характеристики температуры и влажнoсти вoздуха измеряются на высoте 2 м в тени вдали oт зданий и деревьев.
Скoрoсть ветра измеряется на высoте 10 м (на урoвне рoста челoвека скoрoсть ветра ниже в 1.5-2 раза). Если метеoстанция нахoдится в гoрoде или в лесу, тo скoрoсть ветра занижена на 2-4 м/с пo сравнению с oткрытым местoм. Скoрoсть ветра над акватoриями крупных рек и oзёр, а также на вершинах хoлмoв на 2-5 м/с выше, чем в oбычных услoвиях.
Атмoсфернoе давление в разных тoчках местнoсти мoжет значительнo oтличаться oт давления на метеoстанции, в зависимoсти oт услoвий рельефа (при пoдъёме на 10 м давление пoнижается примернo на 1 мм рт.ст.).